Regional Weather Roundup
Issued by NWS Charleston, WV

Home | Current Version | Previous Version | Text Only | Print | Product List | Glossary On
Versions: 1 2 3 4 5 6 7 8 9 10 11 12 13 14 15 16 17 18 19 20 21 22 23 24 25 26 27 28 29 30 31 32 33 34 35 36 37 38 39 40 41 42 43 44 45 46 47 48 49 50
000
ASUS41 KRLX 020710
RWRRLX
West Virginia Regional Weather Roundup
National Weather Service Charleston WV
300 AM EDT TUE JUN 02 2015

Note: "fair" indicates few or no clouds below 12,000 feet with no
significant weather and/or obstructions to visibility.

WVZ003-020800-
Northern Panhandle of West Virginia

CITY           SKY/WX    TMP DP  RH WIND       PRES   REMARKS
WHEELING       CLOUDY    52  49  89 N7        30.10F
$$

WVZ009-020800-
Northwest West Virginia

CITY           SKY/WX    TMP DP  RH WIND       PRES   REMARKS
PARKERSBURG    CLOUDY    53  51  93 CALM      30.13S
$$

WVZ006-020800-
Western West Virginia

CITY           SKY/WX    TMP DP  RH WIND       PRES   REMARKS
HUNTINGTON     CLOUDY    53  53 100 NE5       30.10S FOG
$$

WVZ015-020800-
West Central West Virginia

CITY           SKY/WX    TMP DP  RH WIND       PRES   REMARKS
CHARLESTON     CLOUDY    55  54  96 VRB3      30.08S FOG
$$

WVZ022-031-020800-
North Central West Virginia

CITY           SKY/WX    TMP DP  RH WIND       PRES   REMARKS
CLARKSBURG     CLOUDY    54  52  93 N8        30.07F
MORGANTOWN     CLOUDY    55  50  83 N7        30.09S
$$

WVZ025-035-042-045-020800-
Southern West Virginia

CITY           SKY/WX    TMP DP  RH WIND       PRES   REMARKS
BECKLEY        FOG       59  57  93 N5        30.07F VSB 1/4
LOGAN          FOG       55  55 100 CALM      30.05S VSB 3/4
BLUEFIELD      CLOUDY    63  59  87 CALM      30.09S
LEWISBURG      CLOUDY    63  60  90 W3        30.07S
$$

WVZ047-020800-
Northern Mountains of West Virginia

CITY           SKY/WX    TMP DP  RH WIND       PRES   REMARKS
ELKINS         RAIN      56  54  93 N5        30.06F FOG
$$

WVZ052-020800-
Eastern Panhandle of West Virginia

CITY           SKY/WX    TMP DP  RH WIND       PRES   REMARKS
MARTINSBURG    CLOUDY    62  59  90 N9        30.02F
PETERSBURG     DRIZZLE   58  56  93 NW3       30.07S
$$


USA.gov is the U.S. government's official web portal to all federal, state and local government web resources and services.